Time,TemperatureF,DewpointF,PressureIn,WindDirection,WindDirectionDegrees,WindSpeedMPH,WindSpeedGustMPH,Humidity,HourlyPrecipIn,Conditions,Clouds,dailyrainin,SoftwareType,DateUTC
2013-10-03 02:12:00,68.3,58.1,30.15,NW,312,1.0,1.0,70,0.00,,,0.00,Wunderground v.1.15,2013-10-03 06:12:00,
2013-10-03 02:57:00,64.5,57.5,30.15,NW,312,0.0,4.0,78,0.00,,,0.00,Wunderground v.1.15,2013-10-03 06:57:00,
2013-10-03 04:37:00,65.2,57.8,30.16,NW,312,0.0,3.0,77,0.00,,,0.00,Wunderground v.1.15,2013-10-03 08:37:00,
2013-10-03 06:37:00,62.1,57.9,30.20,NW,312,1.0,4.0,86,0.00,,,0.00,Wunderground v.1.15,2013-10-03 10:37:00,
2013-10-03 08:18:00,60.4,58.1,30.21,NW,312,0.0,5.0,92,0.00,,,0.00,Wunderground v.1.15,2013-10-03 12:18:00,
2013-10-03 12:33:00,76.0,60.6,30.16,East,100,3.0,7.0,59,0.00,,,0.00,Wunderground v.1.15,2013-10-03 16:33:00,
2013-10-03 12:53:00,76.1,60.2,30.16,ESE,111,2.0,7.0,58,0.00,,,0.00,Wunderground v.1.15,2013-10-03 16:53:00,
2013-10-03 12:57:00,76.8,59.9,30.16,ESE,111,3.0,3.0,56,0.00,,,0.00,Wunderground v.1.15,2013-10-03 16:57:00,
2013-10-03 13:08:00,78.1,60.1,30.15,SE,125,1.0,7.0,54,0.00,,,0.00,Wunderground v.1.15,2013-10-03 17:08:00,
2013-10-03 14:18:00,75.3,58.5,30.13,SE,125,2.0,2.0,56,0.00,,,0.00,Wunderground v.1.15,2013-10-03 18:18:00,
2013-10-03 14:53:00,79.6,59.9,30.12,WSW,251,1.0,10.0,51,0.00,,,0.00,Wunderground v.1.15,2013-10-03 18:53:00,
2013-10-03 15:08:00,80.7,59.2,30.11,SSE,155,2.0,10.0,48,0.00,,,0.00,Wunderground v.1.15,2013-10-03 19:08:00,
2013-10-03 15:13:00,80.9,58.8,30.11,SE,142,3.0,10.0,47,0.00,,,0.00,Wunderground v.1.15,2013-10-03 19:13:00,
2013-10-03 15:18:00,79.9,59.0,30.11,SE,142,3.0,10.0,49,0.00,,,0.00,Wunderground v.1.15,2013-10-03 19:18:00,
2013-10-03 15:53:00,77.9,58.3,30.10,SE,139,2.0,9.0,51,0.00,,,0.00,Wunderground v.1.15,2013-10-03 19:53:00,
2013-10-03 16:28:00,76.8,57.8,30.10,SE,138,2.0,10.0,52,0.00,,,0.00,Wunderground v.1.15,2013-10-03 20:28:00,
2013-10-03 18:18:00,76.1,59.3,30.12,SE,138,0.0,7.0,56,0.00,,,0.00,Wunderground v.1.15,2013-10-03 22:18:00,
2013-10-03 18:38:00,75.3,59.5,30.13,SE,138,0.0,4.0,58,0.00,,,0.00,Wunderground v.1.15,2013-10-03 22:38:00,
2013-10-03 19:33:00,72.5,58.3,30.13,SE,138,0.0,4.0,61,0.00,,,0.00,Wunderground v.1.15,2013-10-03 23:33:00,
2013-10-03 19:58:00,72.7,58.9,30.13,SE,138,0.0,0.0,62,0.00,,,0.00,Wunderground v.1.15,2013-10-03 23:58:00,
2013-10-03 20:58:00,71.6,58.8,30.13,SE,138,2.0,2.0,64,0.00,,,0.00,Wunderground v.1.15,2013-10-04 00:58:00,
2013-10-03 22:32:00,68.4,59.4,30.15,SE,138,1.0,1.0,73,0.00,,,0.00,Wunderground v.1.15,2013-10-04 02:32:00,
2013-10-03 22:57:00,70.1,59.5,30.14,SE,138,0.0,4.0,69,0.00,,,0.00,Wunderground v.1.15,2013-10-04 02:57:00,
2013-10-03 23:32:00,67.6,59.4,30.14,SE,138,1.0,3.0,75,0.00,,,0.00,Wunderground v.1.15,2013-10-04 03:32:00,